Starlink 31977

operational
NORAD ID: 59892 Int'l Des: 2024-100 Owner: SPXS Country: US Constellation: starlink
LEOCIRCULAR

Starlink 31977について

説明を読み込み中...

リアルタイム位置

3D地球を読み込み中...

次回通過

高度履歴

Altitude vs Time

uPlot chart will show altitude changes over time

軌道要素

1 59892U 24100H 25354.00423345 -.00000154 00000-0 39209-5 0 9999
2 59892 43.0010 208.1857 0001452 256.4753 103.5937 15.27575377 89057
Epoch: Dec 20, 2025 • Age: 8 hours

現在のステータス

高度 483.5 km
速度 7.63 km/s
衛星直下点 26.00°N, 137.29°E
打ち上げ日 May 28, 2024
運用期間 1.5 years
タイプ internet

技術仕様

分類 Payload
質量 730.00 kg
乾燥質量 700.00 kg
総質量 730.00 kg
長さ 0.30 m
直径 4.10 m
スパン 29.00 m
形状 Box + pan
製造者 SPXS
バスタイプ Starlink V2M
フェーズステータス In Orbit
所有者/国 SPXS/US

大規模コンステレーション

Loading constellations...